TimeMDT,TemperatureF,Dew PointF,Humidity,Sea Level PressureIn,VisibilityMPH,Wind Direction,Wind SpeedMPH,Gust SpeedMPH,PrecipitationIn,Events,Conditions,WindDirDegrees,DateUTC
12:56 AM,59.0,48.9,69,29.60,-9999.0,SW,16.1,26.5,0.01,,Unknown,230,2013-09-23 06:56:00
1:56 AM,53.1,50.0,89,29.55,-9999.0,SSW,9.2,-,0.04,,Unknown,200,2013-09-23 07:56:00
2:56 AM,53.1,48.9,86,29.49,-9999.0,South,19.6,-,N/A,,Unknown,190,2013-09-23 08:56:00
3:56 AM,53.1,48.9,86,29.48,-9999.0,SSW,12.7,-,N/A,,Unknown,200,2013-09-23 09:56:00
4:56 AM,54.0,48.9,83,29.47,-9999.0,SSW,13.8,20.7,N/A,,Unknown,210,2013-09-23 10:56:00
5:56 AM,53.1,48.9,86,29.49,-9999.0,SW,16.1,23.0,N/A,,Unknown,220,2013-09-23 11:56:00
6:56 AM,53.1,45.0,74,29.51,-9999.0,SW,13.8,-,N/A,,Unknown,230,2013-09-23 12:56:00
7:56 AM,55.9,42.1,60,29.53,-9999.0,SW,13.8,-,N/A,,Unknown,230,2013-09-23 13:56:00
8:56 AM,63.0,43.0,48,29.57,-9999.0,WNW,11.5,20.7,N/A,,Unknown,290,2013-09-23 14:56:00
9:20 AM,62.6,46.4,55,29.75,-9999.0,NNW,11.5,-,N/A,,Unknown,330,2013-09-23 15:20:00
9:56 AM,64.0,46.9,54,29.60,-9999.0,North,8.1,-,N/A,,Unknown,350,2013-09-23 15:56:00
10:56 AM,66.9,45.0,45,29.62,-9999.0,Variable,6.9,-,N/A,,Unknown,0,2013-09-23 16:56:00
11:56 AM,68.0,45.0,43,29.62,-9999.0,West,6.9,-,N/A,,Unknown,270,2013-09-23 17:56:00
12:56 PM,72.0,44.1,37,29.63,-9999.0,WNW,9.2,-,N/A,,Unknown,290,2013-09-23 18:56:00
1:56 PM,77.0,39.9,26,29.63,-9999.0,NW,16.1,23.0,N/A,,Unknown,310,2013-09-23 19:56:00
2:56 PM,75.9,37.9,25,29.66,-9999.0,NW,13.8,27.6,N/A,,Unknown,320,2013-09-23 20:56:00
3:56 PM,75.9,39.9,27,29.68,-9999.0,North,17.3,20.7,N/A,,Unknown,350,2013-09-23 21:56:00
4:56 PM,73.9,43.0,33,29.73,-9999.0,North,13.8,-,N/A,,Unknown,10,2013-09-23 22:56:00
5:56 PM,70.0,42.1,36,29.77,-9999.0,NNE,12.7,-,N/A,,Unknown,20,2013-09-23 23:56:00
6:56 PM,63.0,45.0,52,29.83,-9999.0,NNE,9.2,-,N/A,,Unknown,20,2013-09-24 00:56:00
7:56 PM,57.0,46.0,67,29.87,-9999.0,North,-9999.0,-,N/A,,Unknown,0,2013-09-24 01:56:00
8:56 PM,54.0,46.0,75,29.89,-9999.0,NNW,6.9,-,N/A,,Unknown,340,2013-09-24 02:56:00
9:56 PM,51.1,45.0,80,29.93,-9999.0,WNW,8.1,-,N/A,,Unknown,300,2013-09-24 03:56:00
10:56 PM,50.0,45.0,83,29.94,-9999.0,WNW,6.9,-,N/A,,Unknown,300,2013-09-24 04:56:00
11:56 PM,50.0,44.1,80,29.95,-9999.0,West,9.2,-,N/A,,Unknown,280,2013-09-24 05:56:00